Location: Doschendorf
(50.0069°N, 11.0602°E)
Time: 16:31:28
(UTC+00:00)

Cosmos 1455 - Pass Details

Date: 17 November 2019
Orbit: 499 x 524 km, 82.5° (Epoch: 06 December)

Event Time Altitude Azimuth Distance (km) Brightness Sun altitude
Rises 16:18:33 0° 213° (SSW) 2,599 6.7 -8.0°
Reaches altitude 10° 16:20:51 10° 224° (SW) 1,716 6.0 -8.3°
Maximum altitude 16:24:13 31° 288° (WNW) 911 4.1 -8.8°
Drops below altitude 10° 16:27:36 10° 351° (N) 1,720 4.7 -9.3°
Sets 16:29:54 0° 2° (N) 2,608 5.6 -9.7°
